Location: ??????????
(48.4699°N, 37.9573°E)
Time: 02:24:14
(UTC+00:00)

ATLAS 2AS CENTAUR R/B - Pass Details

Date: 20 January 2021
Orbit: 947 x 1265 km, 63.7° (Epoch: 13 February)

Event Time Altitude Azimuth Distance (km) Brightness Sun altitude
Rises 16:23:26 0° 267° (W) 4,221 7.3 -22.0°
Reaches altitude 10° 16:26:40 10° 277° (W) 3,250 6.3 -22.5°
Maximum altitude 16:33:34 32° 338° (NNW) 1,998 4.2 -23.7°
Enters shadow 16:38:03 19° 28° (NNE) 2,568 4.4 -24.4°
